www.pogodaiklimat.ru
Время
и дата
03:53 07.12
04:53 07.12
05:53 07.12
06:53 07.12
07:53 07.12
08:53 07.12
09:53 07.12
10:53 07.12
11:53 07.12
12:53 07.12
13:53 07.12
14:53 07.12
15:53 07.12
16:53 07.12
17:53 07.12
18:53 07.12
19:53 07.12
20:53 07.12
21:53 07.12
22:53 07.12
23:53 07.12
00:53 08.12
01:53 08.12
02:53 08.12
03:53 08.12
04:53 08.12
05:53 08.12
06:53 08.12
07:53 08.12
08:53 08.12
09:53 08.12
10:53 08.12
11:53 08.12
12:53 08.12
13:53 08.12
14:53 08.12
15:53 08.12
16:53 08.12
17:53 08.12
18:53 08.12
19:53 08.12
20:53 08.12
21:53 08.12
22:53 08.12
23:53 08.12
00:53 09.12
01:53 09.12
02:53 09.12
Ветер
(напр.,м/с)
Видим. Явления Облачность Т
(С)
Тd
(С)
f
(%)
Тe
(С)
Тes
(С)
Комфортность P
(гПа)
Po
(гПа)
Тmin
(С)
Tmax
(С)
R
(мм)
R24
(мм)
S
(см)
СЗ 1 16 км 2/0 3300 м
[Ac]
-2.8 -9.4 60 -6 -6 1013.9 874.6
штиль 0 16 км ясно -4.4 -9.4 68 -5 -5 1014.5 874.9 -4.4 +1.7
Ю 1 16 км 10/0 3300 м
[Ac]
-5.6 -9.4 75 -11 -11 1015.0 875.2
СЗ 1 16 км 10/0 3600 м
[Ac]
-5.0 -8.9 74 -9 -9 1015.1 875.5
СЗ 1 16 км 8/0 3000 м
[Ac]
-3.3 -7.8 71 -8 -8 1015.4 875.8
СЗ 2 16 км ясно -2.8 -7.8 68 -9 -8 1015.8 876.1
З 1 16 км 5/0 2400 м
[Ac]
+0.6 -7.2 56 -3 -3 1015.2 875.8
Ю 2 16 км ясно +2.2 -7.2 50 -2 0 1013.8 874.9 -7.2 +2.2
Ю 1 16 км ясно +3.9 -6.7 46 +1 +4 1012.1 873.7
штиль 0 16 км ясно +6.1 -6.7 39 +6 +11 1010.3 872.6
В 1 16 км ясно +8.9 -6.1 34 +8 +11 1008.4 871.7
СВ 1 16 км ясно +9.4 -5.6 34 +8 +10 1008.6 871.7
СВ 1 16 км ясно +7.2 -6.1 38 +5 +6 1009.9 872.3
В 1 16 км ясно +3.9 -6.7 46 +2 +2 1011.0 872.6 +2.2 +9.4
С 2 16 км ясно 0.0 -7.8 56 -5 -5 1013.0 873.2
С 1 16 км ясно -0.6 -7.8 58 -4 -4 1013.7 874.0
СЗ 1 16 км ясно -2.8 -7.8 68 -8 -8 1014.0 874.0
С 1 16 км ясно -3.3 -8.3 68 -7 -7 1014.3 874.3
СЗ 1 16 км ясно -3.9 -8.3 71 -9 -9 1014.1 874.6
З 1 16 км ясно -5.6 -8.9 78 -11 -11 1014.5 874.9 -6.1 +3.9
СЗ 1 16 км ясно -5.0 -8.9 74 -10 -10 1014.1 874.9
С 1 16 км ясно -5.0 -8.9 74 -9 -9 1013.6 874.9
С 1 16 км ясно -7.8 -10.6 80 -14 -14 1013.2 874.3
штиль 0 16 км ясно -7.8 -10.6 80 -8 -8 1013.0 874.3
С 1 16 км ясно -6.7 -10.0 77 -12 -12 1012.2 873.7
нст 1 16 км ясно -7.2 -10.6 77 -12 -12 1012.7 873.5 -8.3 -5.0
штиль 0 16 км ясно -7.2 -10.6 77 -8 -8 1013.0 873.2
В 1 16 км ясно -7.8 -11.1 77 -13 -13 1012.7 872.6
ЮВ 2 16 км ясно -5.0 -8.3 78 -11 -11 1011.8 872.0
В 2 16 км ясно 0.0 -6.1 63 -5 -5 1010.0 871.1
Ю 2 16 км ясно +8.9 -5.6 35 +6 +7 1007.7 870.5
Ю 4 16 км ясно +12.8 -6.7 25 +10 +11 1006.2 869.6 -8.3 +12.8
Ю 3 16 км ясно +13.9 -7.2 22 +12 +13 1004.1 867.9
ЮЗ 3
{5}
16 км ясно +13.3 -7.2 23 +12 +13 1002.5 866.7
Ю 3 16 км ясно +13.9 -7.8 21 +12 +14 1001.6 865.5
ЮЗ 1 16 км ясно +12.8 -7.2 24 +12 +14 1001.1 865.0
ЮЗ 1 16 км ясно +10.6 -7.2 28 +9 +10 1001.3 865.0
З 2 16 км ясно +10.6 -8.3 26 +9 +9 1001.5 865.0 +7.8 +14.4
З 3 16 км ясно +10.6 -7.8 27 +8 +8 1001.3 864.7
З 3
{5}
16 км ясно +11.1 -6.7 28 +8 +8 1000.2 863.8
З 4
{6}
16 км ясно +11.1 -5.0 32 +8 +8 998.8 863.2
СЗ 3 16 км ясно +10.6 -5.0 33 +8 +8 997.6 862.6
З 4
{6}
16 км ясно +11.1 -5.0 32 +8 +8 996.5 862.9
З 4
{8}
16 км ясно +11.1 -4.4 33 +8 +8 996.3 863.5 +8.9 +11.7
З 5
{9}
16 км ясно +10.6 -3.3 38 +7 +7 996.3 863.5
З 5
{8}
16 км ясно +10.0 -2.8 41 +6 +6 996.8 863.8
З 5
{8}
16 км ясно +9.4 -2.8 42 +5 +5 997.5 864.4
З 4
{6}
16 км ясно +8.9 -3.3 42 +5 +5 998.9 865.3
Местоположение метеостанции Heilig Field: широта 41.8669 долгота -103.5858 высота над уровнем моря 1208 м.
В архиве по умолчанию представлена погода в Скотсблаффе за последние 1-2 суток. Обновление информации о фактической погоде в базе происходит ежечасно! Архивные данные за месяц целиком и за предыдущие месяцы Вы можете получить, выбрав интересующий диапазон дат из раскрывающегося списка и нажав кнопку "Ввод!".
Внимание! Архив погоды МЕТАР в базе сайта по станциям, не включенным в климатический монитор, хранится не более 60 дней. Нет смысла пытаться выбрать более раннюю дату.
*Определитесь, кто Вы:
Внимание! Время в таблицах - местное (без учета летнего времени). Для получения всемирного времени необходимо вычесть поправку, которая равна -7 ч.
Смотрите также архив погоды в соседних городах и на ближайших метеорологических станциях:
Партнеры нашего сайта:      
Пояснения к столбцам:
  • Ветер - указаны скорость ветра в м/с - средняя за 10 мин, порывы в срок и между сроками (в фигурных скобках) и направление, откуда дует ветер: С - северный,
  • СВ - северо-восточный, В - восточный, ЮВ - юго-восточный, Ю - южный, ЮЗ - юго-западный, З - западный, СЗ - северо-западный.
  • Видимость - горизонтальная дальность видимости в метрах или километрах. При видимости от 1 до 10 км при отсутствии осадков обычно наблюдается дымка, при ухудшении видимости до 1 км и менее - туман. В сухую погоду видимость может ухудшаться дымом, пылью или мглою.
  • Явления - указаны атмосферные явления, наблюдавшиеся в срок или в последний час перед сроком; фигурными скобками обозначены явления, наблюдавшиеся между сроками (за 1-3 часа до срока); квадратными скобками обозначены град или гололедные отложения с указанием их диаметра в мм.
  • Облачность - указаны через наклонную черту общая и нижняя облачность в баллах и высота нижней границы облаков в метрах; квадратными скобками обозначены формы облаков: Ci - перистые, Cs - перисто-слоистые, Cc - перисто-кучевые, Ac - высококучевые, As - высокослоистые, Sc - слоисто-кучевые, Ns - слоисто-дождевые, Cu - кучевые, Cb - кучево-дождевые. Подробнее классификацию облаков см. в Атласе облаков (PDF).
  • T - Температура воздуха - температура, измеренная на высоте 2 м над землей.
  • Td - Температура точки росы - температура, при понижении до которой содержащийся в воздухе водяной пар достигнет насыщения.
  • f - Относительная влажность воздуха - влажноcть воздуха, измеренная на высоте 2 м над землей.
  • Te - Эффективная температура - температура, которую ощущает одетый по сезону человек в тени. Характеристика душности погоды. При расчете учитывается влияние влажности воздуха и скорости ветра на теплоощущения человека.
  • Tes - Эффективная температура на солнце - температура, которую ощущает человек, с поправкой на солнечный нагрев. Характеристика знойности погоды. Зависит от высоты солнца над горизонтом, облачности и скорости ветра. Ночью, в пасмурную погоду, а также при ветре 12 м/с и более поправка равна нулю.
  • P - Атмосферное давление - приведенное к уровню моря атмосферное давление.
  • Po - Атмосферное давление - измеренное на уровне метеостанции атмосферное давление.
  • Tmin - Минимальная температура - минимум температуры воздуха на высоте 2 м над землей.
  • Tmax - Максимальная температура - максимум температуры воздуха на высоте 2 м над землей.
  • R - Количество осадков - Количество выпавших осадков за период времени, мм. При наведении курсора мыши на число - период времени, за который выпало указанное количество осадков.
  • R24 - Количество осадков - Количество выпавших осадков за 24 часа, мм.
  • S - Снежный покров - Высота снежного покрова, см. При наведении курсора мыши на число - состояние снежного покрова и степень покрытия местности в баллах.